Location: Llanfihangel-Ystrad
(52.1833°N, 4.1667°W)
Time: 16:24:19
(UTC+00:00)

CZ-4B R/B - Pass Details

Date: 17 February 2020
Orbit: 497 x 646 km, 97.8° (Epoch: 29 March)

Event Time Altitude Azimuth Distance (km) Brightness Sun altitude
Rises 05:46:55 0° 9° (N) 2,835 7.6 -16.3°
Reaches altitude 10° 05:49:08 10° 2° (N) 1,952 6.6 -15.9°
Maximum altitude 05:53:09 42° 292° (WNW) 889 4.4 -15.3°
Enters shadow 05:56:41 13° 225° (SW) 1,786 6.0 -14.8°
